Time,TemperatureF,DewpointF,PressureIn,WindDirection,WindDirectionDegrees,WindSpeedMPH,WindSpeedGustMPH,Humidity,HourlyPrecipIn,Conditions,Clouds,dailyrainin,SoftwareType,DateUTC
2013-10-07 00:09:00,44.1,43.6,29.86,South,180,0.0,-999.0,98,-99.99,,,0.00,Acu-Link.com,2013-10-07 05:09:00,
2013-10-07 00:24:00,43.7,43.2,29.86,South,180,0.0,-999.0,98,-99.99,,,0.00,Acu-Link.com,2013-10-07 05:24:00,
2013-10-07 00:42:00,43.7,43.2,29.86,WNW,292,1.1,-999.0,98,-99.99,,,0.00,Acu-Link.com,2013-10-07 05:42:00,
2013-10-07 00:57:00,44.1,43.6,29.86,NW,315,0.0,-999.0,98,-99.99,,,0.00,Acu-Link.com,2013-10-07 05:57:00,
2013-10-07 01:12:00,44.6,44.1,29.86,NE,45,0.0,-999.0,98,-99.99,,,0.00,Acu-Link.com,2013-10-07 06:12:00,
2013-10-07 01:27:00,44.6,44.1,29.87,NNW,337,1.7,-999.0,98,-99.99,,,0.00,Acu-Link.com,2013-10-07 06:27:00,
2013-10-07 01:42:00,44.4,43.9,29.86,SW,225,0.0,-999.0,98,-99.99,,,0.00,Acu-Link.com,2013-10-07 06:42:00,
2013-10-07 01:59:00,44.1,43.6,29.87,South,180,0.0,-999.0,98,-99.99,,,0.00,Acu-Link.com,2013-10-07 06:59:00,
2013-10-07 02:14:00,43.7,43.2,29.87,NNW,337,1.1,-999.0,98,-99.99,,,0.00,Acu-Link.com,2013-10-07 07:14:00,
2013-10-07 02:30:00,44.1,43.6,29.87,SW,225,0.0,-999.0,98,-99.99,,,0.00,Acu-Link.com,2013-10-07 07:30:00,
2013-10-07 02:45:00,44.1,43.6,29.86,WNW,292,0.0,-999.0,98,-99.99,,,0.00,Acu-Link.com,2013-10-07 07:45:00,
2013-10-07 03:00:00,43.9,43.4,29.87,NW,315,0.0,-999.0,98,-99.99,,,0.00,Acu-Link.com,2013-10-07 08:00:00,
2013-10-07 03:16:00,43.9,43.4,29.86,NW,315,0.0,-999.0,98,-99.99,,,0.00,Acu-Link.com,2013-10-07 08:16:00,
2013-10-07 03:31:00,43.7,43.2,29.87,SW,225,0.0,-999.0,98,-99.99,,,0.00,Acu-Link.com,2013-10-07 08:31:00,
2013-10-07 03:46:00,43.7,43.2,29.86,WNW,292,0.0,-999.0,98,-99.99,,,0.00,Acu-Link.com,2013-10-07 08:46:00,
2013-10-07 04:01:00,43.7,43.2,29.86,NNW,337,2.2,-999.0,98,-99.99,,,0.00,Acu-Link.com,2013-10-07 09:01:00,
2013-10-07 04:17:00,43.9,43.4,29.86,West,270,1.7,-999.0,98,-99.99,,,0.00,Acu-Link.com,2013-10-07 09:17:00,
2013-10-07 04:32:00,43.7,43.2,29.86,WNW,292,2.2,-999.0,98,-99.99,,,0.00,Acu-Link.com,2013-10-07 09:32:00,
2013-10-07 04:47:00,44.4,43.9,29.86,NNW,337,0.0,-999.0,98,-99.99,,,0.01,Acu-Link.com,2013-10-07 09:47:00,
2013-10-07 05:02:00,44.6,44.1,29.86,NW,315,1.7,-999.0,98,-99.99,,,0.01,Acu-Link.com,2013-10-07 10:02:00,
2013-10-07 05:17:00,44.6,44.1,29.86,NW,315,1.7,-999.0,98,-99.99,,,0.01,Acu-Link.com,2013-10-07 10:17:00,
2013-10-07 05:33:00,44.2,43.7,29.87,NNW,337,1.7,-999.0,98,-99.99,,,0.01,Acu-Link.com,2013-10-07 10:33:00,
2013-10-07 05:48:00,43.9,43.4,29.87,NW,315,0.0,-999.0,98,-99.99,,,0.01,Acu-Link.com,2013-10-07 10:48:00,
2013-10-07 06:03:00,43.7,43.2,29.88,WNW,292,2.2,-999.0,98,-99.99,,,0.01,Acu-Link.com,2013-10-07 11:03:00,
2013-10-07 06:19:00,43.5,43.0,29.88,WNW,292,2.7,-999.0,98,-99.99,,,0.01,Acu-Link.com,2013-10-07 11:19:00,
2013-10-07 06:34:00,43.3,42.8,29.88,NW,315,1.7,-999.0,98,-99.99,,,0.01,Acu-Link.com,2013-10-07 11:34:00,
2013-10-07 06:49:00,43.0,42.5,29.89,NNW,337,0.0,-999.0,98,-99.99,,,0.01,Acu-Link.com,2013-10-07 11:49:00,
2013-10-07 07:05:00,42.3,41.8,29.89,South,180,0.0,-999.0,98,-99.99,,,0.01,Acu-Link.com,2013-10-07 12:05:00,
2013-10-07 07:20:00,41.7,41.2,29.90,WSW,247,0.0,-999.0,98,-99.99,,,0.01,Acu-Link.com,2013-10-07 12:20:00,
2013-10-07 07:35:00,41.7,41.2,29.91,NW,315,0.0,-999.0,98,-99.99,,,0.01,Acu-Link.com,2013-10-07 12:35:00,
2013-10-07 07:50:00,42.6,42.1,29.92,NW,315,1.7,-999.0,98,-99.99,,,0.01,Acu-Link.com,2013-10-07 12:50:00,
2013-10-07 08:06:00,44.4,43.9,29.92,NW,315,2.2,-999.0,98,-99.99,,,0.01,Acu-Link.com,2013-10-07 13:06:00,
2013-10-07 08:21:00,45.9,45.4,29.93,NW,315,0.0,-999.0,98,-99.99,,,0.01,Acu-Link.com,2013-10-07 13:21:00,
2013-10-07 08:36:00,47.5,47.0,29.93,ESE,112,0.0,-999.0,98,-99.99,,,0.01,Acu-Link.com,2013-10-07 13:36:00,
2013-10-07 08:52:00,49.3,48.8,29.94,WNW,292,0.0,-999.0,98,-99.99,,,0.01,Acu-Link.com,2013-10-07 13:52:00,
2013-10-07 09:07:00,50.5,50.0,29.94,East,90,1.1,-999.0,98,-99.99,,,0.01,Acu-Link.com,2013-10-07 14:07:00,
2013-10-07 09:22:00,51.3,50.8,29.96,NW,315,1.7,-999.0,98,-99.99,,,0.01,Acu-Link.com,2013-10-07 14:22:00,
2013-10-07 09:37:00,53.8,53.2,29.96,NNW,337,1.7,-999.0,98,-99.99,,,0.01,Acu-Link.com,2013-10-07 14:37:00,
2013-10-07 09:53:00,54.3,53.7,29.96,ESE,112,1.7,-999.0,98,-99.99,,,0.01,Acu-Link.com,2013-10-07 14:53:00,
2013-10-07 10:08:00,56.3,55.7,29.97,NNE,22,0.0,-999.0,98,-99.99,,,0.01,Acu-Link.com,2013-10-07 15:08:00,
2013-10-07 10:23:00,57.9,57.3,29.98,NW,315,1.7,-999.0,98,-99.99,,,0.01,Acu-Link.com,2013-10-07 15:23:00,
2013-10-07 10:38:00,58.5,57.7,29.97,ESE,112,1.1,-999.0,97,-99.99,,,0.01,Acu-Link.com,2013-10-07 15:38:00,
2013-10-07 10:54:00,59.0,58.1,29.98,North,0,2.2,-999.0,97,-99.99,,,0.01,Acu-Link.com,2013-10-07 15:54:00,
2013-10-07 11:09:00,59.7,56.8,29.97,NW,315,2.7,-999.0,90,-99.99,,,0.01,Acu-Link.com,2013-10-07 16:09:00,
2013-10-07 11:24:00,61.2,57.3,29.98,WNW,292,1.1,-999.0,87,-99.99,,,0.01,Acu-Link.com,2013-10-07 16:24:00,
2013-10-07 11:39:00,63.5,55.1,29.98,ENE,67,2.2,-999.0,74,-99.99,,,0.01,Acu-Link.com,2013-10-07 16:39:00,
2013-10-07 11:55:00,62.1,51.8,29.98,SSW,202,2.2,-999.0,69,-99.99,,,0.01,Acu-Link.com,2013-10-07 16:55:00,
2013-10-07 12:10:00,64.0,52.4,29.99,SE,135,2.2,-999.0,66,-99.99,,,0.01,Acu-Link.com,2013-10-07 17:10:00,
2013-10-07 12:25:00,64.4,52.4,29.99,ENE,67,1.7,-999.0,65,-99.99,,,0.01,Acu-Link.com,2013-10-07 17:25:00,
2013-10-07 12:40:00,65.5,52.1,29.99,NNW,337,2.2,-999.0,62,-99.99,,,0.01,Acu-Link.com,2013-10-07 17:40:00,
2013-10-07 12:55:00,64.9,49.3,29.99,NNE,22,2.2,-999.0,57,-99.99,,,0.01,Acu-Link.com,2013-10-07 17:55:00,
2013-10-07 13:11:00,65.3,49.7,29.98,NNW,337,0.0,-999.0,57,-99.99,,,0.01,Acu-Link.com,2013-10-07 18:11:00,
2013-10-07 13:26:00,66.0,50.8,29.98,South,180,1.7,-999.0,58,-99.99,,,0.01,Acu-Link.com,2013-10-07 18:26:00,
2013-10-07 13:41:00,66.6,49.9,29.98,SSW,202,1.1,-999.0,55,-99.99,,,0.01,Acu-Link.com,2013-10-07 18:41:00,
2013-10-07 13:56:00,66.9,48.2,29.98,NW,315,2.7,-999.0,51,-99.99,,,0.01,Acu-Link.com,2013-10-07 18:56:00,
2013-10-07 14:12:00,66.9,47.1,29.98,NE,45,2.7,-999.0,49,-99.99,,,0.01,Acu-Link.com,2013-10-07 19:12:00,
2013-10-07 14:27:00,67.5,47.1,29.98,North,0,3.7,-999.0,48,-99.99,,,0.01,Acu-Link.com,2013-10-07 19:27:00,
2013-10-07 14:42:00,66.2,44.2,29.98,NNW,337,4.7,-999.0,45,-99.99,,,0.01,Acu-Link.com,2013-10-07 19:42:00,
2013-10-07 14:58:00,66.2,45.9,29.99,WSW,247,2.2,-999.0,48,-99.99,,,0.01,Acu-Link.com,2013-10-07 19:58:00,
2013-10-07 15:13:00,68.4,45.0,29.98,WNW,292,1.7,-999.0,43,-99.99,,,0.01,Acu-Link.com,2013-10-07 20:13:00,
2013-10-07 15:28:00,67.6,45.5,29.99,NE,45,1.7,-999.0,45,-99.99,,,0.01,Acu-Link.com,2013-10-07 20:28:00,
2013-10-07 15:44:00,66.6,45.2,29.99,East,90,0.0,-999.0,46,-99.99,,,0.01,Acu-Link.com,2013-10-07 20:44:00,
2013-10-07 15:59:00,65.1,44.4,29.99,West,270,3.2,-999.0,47,-99.99,,,0.01,Acu-Link.com,2013-10-07 20:59:00,
2013-10-07 16:14:00,64.8,44.1,29.99,East,90,2.7,-999.0,47,-99.99,,,0.01,Acu-Link.com,2013-10-07 21:14:00,
2013-10-07 16:29:00,63.9,44.4,29.99,NW,315,3.7,-999.0,49,-99.99,,,0.01,Acu-Link.com,2013-10-07 21:29:00,
2013-10-07 16:45:00,63.1,44.2,29.99,WNW,292,1.1,-999.0,50,-99.99,,,0.01,Acu-Link.com,2013-10-07 21:45:00,
2013-10-07 17:00:00,62.6,45.2,29.99,NNW,337,1.1,-999.0,53,-99.99,,,0.01,Acu-Link.com,2013-10-07 22:00:00,
2013-10-07 17:15:00,61.9,45.1,29.99,South,180,0.0,-999.0,54,-99.99,,,0.01,Acu-Link.com,2013-10-07 22:15:00,
2013-10-07 17:31:00,61.0,45.2,29.99,East,90,0.0,-999.0,56,-99.99,,,0.01,Acu-Link.com,2013-10-07 22:31:00,
2013-10-07 17:46:00,60.1,44.8,29.99,SSE,157,0.0,-999.0,57,-99.99,,,0.01,Acu-Link.com,2013-10-07 22:46:00,
2013-10-07 18:01:00,59.0,44.7,30.00,ESE,112,0.0,-999.0,59,-99.99,,,0.01,Acu-Link.com,2013-10-07 23:01:00,
2013-10-07 18:17:00,58.1,45.6,29.99,ESE,112,0.0,-999.0,63,-99.99,,,0.01,Acu-Link.com,2013-10-07 23:17:00,
2013-10-07 18:32:00,56.8,45.2,29.99,ESE,112,0.0,-999.0,65,-99.99,,,0.01,Acu-Link.com,2013-10-07 23:32:00,
2013-10-07 18:47:00,56.1,47.6,29.99,NW,315,0.0,-999.0,73,-99.99,,,0.01,Acu-Link.com,2013-10-07 23:47:00,
2013-10-07 19:02:00,54.7,46.2,30.00,ESE,112,0.0,-999.0,73,-99.99,,,0.01,Acu-Link.com,2013-10-08 00:02:00,
2013-10-07 19:17:00,53.6,47.9,30.00,ESE,112,0.0,-999.0,81,-99.99,,,0.01,Acu-Link.com,2013-10-08 00:17:00,
2013-10-07 19:32:00,52.7,47.7,29.99,ESE,112,0.0,-999.0,83,-99.99,,,0.01,Acu-Link.com,2013-10-08 00:32:00,
2013-10-07 19:48:00,52.0,50.3,30.00,ESE,112,0.0,-999.0,94,-99.99,,,0.01,Acu-Link.com,2013-10-08 00:48:00,
2013-10-07 20:03:00,51.3,48.5,30.00,ESE,112,0.0,-999.0,90,-99.99,,,0.01,Acu-Link.com,2013-10-08 01:03:00,
2013-10-07 20:18:00,50.5,50.0,30.00,ESE,112,0.0,-999.0,98,-99.99,,,0.01,Acu-Link.com,2013-10-08 01:18:00,
2013-10-07 20:34:00,50.2,49.7,30.00,ESE,112,0.0,-999.0,98,-99.99,,,0.01,Acu-Link.com,2013-10-08 01:34:00,
2013-10-07 20:49:00,49.5,49.0,30.01,ESE,112,0.0,-999.0,98,-99.99,,,0.01,Acu-Link.com,2013-10-08 01:49:00,
2013-10-07 21:04:00,48.9,48.4,30.01,ESE,112,0.0,-999.0,98,-99.99,,,0.01,Acu-Link.com,2013-10-08 02:04:00,
2013-10-07 21:20:00,48.7,48.2,30.01,ESE,112,0.0,-999.0,98,-99.99,,,0.01,Acu-Link.com,2013-10-08 02:20:00,
2013-10-07 21:35:00,48.7,48.2,30.01,ESE,112,0.0,-999.0,98,-99.99,,,0.01,Acu-Link.com,2013-10-08 02:35:00,
2013-10-07 21:50:00,48.9,48.4,30.01,South,180,0.0,-999.0,98,-99.99,,,0.01,Acu-Link.com,2013-10-08 02:50:00,
2013-10-07 22:05:00,49.1,48.6,30.01,ESE,112,0.0,-999.0,98,-99.99,,,0.01,Acu-Link.com,2013-10-08 03:05:00,
2013-10-07 22:21:00,49.3,48.8,30.01,West,270,0.0,-999.0,98,-99.99,,,0.01,Acu-Link.com,2013-10-08 03:21:00,
2013-10-07 22:36:00,48.4,47.9,30.01,West,270,0.0,-999.0,98,-99.99,,,0.01,Acu-Link.com,2013-10-08 03:36:00,
2013-10-07 22:51:00,48.6,48.1,30.01,NE,45,0.0,-999.0,98,-99.99,,,0.01,Acu-Link.com,2013-10-08 03:51:00,
2013-10-07 23:07:00,48.4,47.9,30.01,NE,45,0.0,-999.0,98,-99.99,,,0.01,Acu-Link.com,2013-10-08 04:07:00,
2013-10-07 23:22:00,48.0,47.5,30.00,NE,45,0.0,-999.0,98,-99.99,,,0.01,Acu-Link.com,2013-10-08 04:22:00,
2013-10-07 23:37:00,47.5,47.0,30.00,NE,45,0.0,-999.0,98,-99.99,,,0.01,Acu-Link.com,2013-10-08 04:37:00,
2013-10-07 23:53:00,46.9,46.4,30.00,NE,45,0.0,-999.0,98,-99.99,,,0.01,Acu-Link.com,2013-10-08 04:53:00,